Weather History for Viroqua, WI

Change the Weather History Date:

Thursday, December 20, 2012

  Actual Average (KLSE) Record (KLSE)
Temperature  
Mean Temperature 26 °F 20 °F  
Max Temperature 30 °F 27 °F 54 °F (1894)
Min Temperature 21 °F 13 °F -24 °F (1983)
Degree Days  
Heating Degree Days 38 45  
Month to date heating degree days 836  
Since 1 July heating degree days 2336  
Cooling Degree Days 0 0  
Month to date cooling degree days 0  
Year to date cooling degree days 782  
Moisture  
Dew Point 27 °F    
Average Humidity 98    
Maximum Humidity 100    
Minimum Humidity 86    
Precipitation  
Precipitation 0.05 in 0.04 in 0.61 in (2012)
Month to date precipitation 0.96  
Year to date precipitation 32.66  
Snow  
Snow 0.00 in 0.40 in 6.50 in (2004)
Month to date snowfall 7.8  
Since 1 July snowfall 12.1  
Snow Depth -    
Sea Level Pressure  
Sea Level Pressure 29.59 in    
Wind  
Wind Speed 22 mph (NNW)    
Max Wind Speed 32 mph    
Max Gust Speed 41 mph    
Visibility 2 miles    
Events      
T = Trace of Precipitation, MM = Missing Value Source: NWS Daily Summary

Daily Weather History Graph

Daily Weather History Graph

Search for Another Location

Airport:

Trip Planner

Search our weather history database for the weather conditions in past years. The results will help you decide how hot, cold, wet, or windy it might be!

Date:

Astronomy

Dec. 20, 2012 Rise Set
Actual Time 7:33 AM CST 4:29 PM CST
Civil Twilight 7:00 AM CST 5:02 PM CST
Nautical Twilight 6:24 AM CST 5:38 PM CST
Astronomical Twilight 5:49 AM CST 6:13 PM CST
Moon 11:56 AM CST (12/20) 12:10 AM CST (12/20)
Length of Visible Light 10h 01m
Length of Day
8h 56m
First Quarter, 55% of the Moon is Illuminated
Dec 20
First Quarter
Dec 28
Full
Jan 4
Last Quarter
Jan 11
New
Jan 18
First Quarter

Hourly Weather History & Observations

Time (CST) Temp. Windchill Dew Point Humidity Pressure Visibility Wind Dir Wind Speed Gust Speed Precip Events Conditions
12:13 AM 30.2 °F 21.3 °F 30.2 °F 100% 29.83 in 1.5 mi NE 10.4 mph - N/A   Overcast
1:54 AM 28.4 °F 16.2 °F 28.4 °F 100% 29.77 in 1.0 mi NNE 17.3 mph - 0.03 in   Overcast
2:14 AM 28.4 °F 17.0 °F 28.4 °F 100% 29.76 in 1.0 mi NNE 15.0 mph - 0.01 in   Overcast
2:34 AM 28.4 °F 16.2 °F 28.4 °F 100% 29.74 in 1.0 mi NNE 17.3 mph 21.9 mph 0.02 in   Overcast
3:13 AM 28.4 °F 16.6 °F 28.4 °F 100% 29.72 in 1.0 mi NNE 16.1 mph - N/A   Overcast
3:56 AM 28.4 °F 15.8 °F 28.4 °F 100% 29.67 in 1.0 mi NNE 18.4 mph - N/A   Overcast
4:36 AM 28.4 °F 16.2 °F 28.4 °F 100% 29.66 in 1.0 mi NNE 17.3 mph 27.6 mph N/A   Overcast
4:54 AM 28.4 °F 15.4 °F 28.4 °F 100% 29.65 in 1.5 mi North 19.6 mph 25.3 mph N/A   Overcast
5:54 AM 28.4 °F 13.5 °F 28.4 °F 100% 29.59 in 1.5 mi North 26.5 mph 31.1 mph N/A   Overcast
6:14 AM 28.4 °F 14.1 °F 28.4 °F 100% 29.59 in 1.2 mi North 24.2 mph 29.9 mph N/A   Overcast
6:54 AM 28.4 °F 14.7 °F 28.4 °F 100% 29.57 in 1.0 mi North 21.9 mph 31.1 mph N/A   Overcast
7:14 AM 28.4 °F 14.7 °F 28.4 °F 100% 29.57 in 1.0 mi North 21.9 mph 28.8 mph N/A   Overcast
7:37 AM 28.4 °F 14.4 °F 28.4 °F 100% 29.55 in 1.0 mi North 23.0 mph 29.9 mph N/A   Overcast
8:35 AM 30.2 °F 17.8 °F 30.2 °F 100% 29.54 in 1.0 mi North 19.6 mph 28.8 mph N/A   Overcast
8:55 AM 30.2 °F 17.4 °F 30.2 °F 100% 29.54 in 1.0 mi North 20.7 mph 28.8 mph N/A   Overcast
9:15 AM 30.2 °F 16.8 °F 30.2 °F 100% 29.53 in 1.2 mi North 23.0 mph 29.9 mph N/A   Overcast
9:35 AM 30.2 °F 17.1 °F 30.2 °F 100% 29.53 in 1.2 mi North 21.9 mph 29.9 mph N/A   Overcast
9:55 AM 30.2 °F 16.2 °F 30.2 °F 100% 29.51 in 1.5 mi North 25.3 mph 32.2 mph N/A   Overcast
10:15 AM 30.2 °F 17.1 °F 30.2 °F 100% 29.51 in 1.2 mi North 21.9 mph 33.4 mph N/A   Overcast
10:35 AM 30.2 °F 16.8 °F 30.2 °F 100% 29.50 in 1.2 mi North 23.0 mph 28.8 mph N/A   Overcast
10:55 AM 30.2 °F 15.7 °F 30.2 °F 100% 29.49 in 1.2 mi North 27.6 mph 38.0 mph N/A   Overcast
11:15 AM 30.2 °F 15.7 °F 30.2 °F 100% 29.48 in 1.2 mi North 27.6 mph 34.5 mph N/A   Overcast
11:35 AM 30.2 °F 15.7 °F 30.2 °F 100% 29.47 in 1.0 mi North 27.6 mph 34.5 mph N/A   Overcast
11:55 AM 30.2 °F 15.7 °F 30.2 °F 100% 29.46 in 1.2 mi North 27.6 mph 39.1 mph N/A   Overcast
12:15 PM 30.2 °F 15.9 °F 30.2 °F 100% 29.46 in 1.5 mi North 26.5 mph 34.5 mph N/A   Overcast
12:35 PM 30.2 °F 16.2 °F 30.2 °F 100% 29.45 in 1.2 mi North 25.3 mph 38.0 mph N/A   Overcast
12:55 PM 30.2 °F 15.7 °F 30.2 °F 100% 29.45 in 1.0 mi NNW 27.6 mph 35.7 mph N/A   Overcast
1:15 PM 30.2 °F 15.2 °F 28.4 °F 93% 29.45 in 0.8 mi NNW 29.9 mph 39.1 mph N/A   Overcast
1:35 PM 30.2 °F 15.4 °F 28.4 °F 93% 29.45 in 0.8 mi NNW 28.8 mph 36.8 mph N/A   Overcast
1:55 PM 30.2 °F 15.4 °F 28.4 °F 93% 29.46 in 0.8 mi North 28.8 mph 41.4 mph N/A   Overcast
2:15 PM 30.2 °F 16.5 °F 28.4 °F 93% 29.46 in 0.5 mi NNW 24.2 mph 39.1 mph N/A   Overcast
2:35 PM 28.4 °F 12.7 °F 28.4 °F 100% 29.47 in 0.8 mi NNW 29.9 mph 39.1 mph N/A   Overcast
2:55 PM 28.4 °F 13.5 °F 28.4 °F 100% 29.48 in 0.8 mi NNW 26.5 mph 38.0 mph N/A   Overcast
3:15 PM 28.4 °F 13.8 °F 28.4 °F 100% 29.49 in 0.8 mi NNW 25.3 mph 34.5 mph N/A   Overcast
3:35 PM 28.4 °F 14.1 °F 28.4 °F 100% 29.51 in 1.0 mi NNW 24.2 mph 32.2 mph N/A   Overcast
3:55 PM 28.4 °F 14.4 °F 28.4 °F 100% 29.52 in 0.8 mi NNW 23.0 mph 31.1 mph N/A   Overcast
4:15 PM 28.4 °F 12.7 °F 28.4 °F 100% 29.53 in 0.8 mi NW 29.9 mph 35.7 mph N/A   Overcast
4:35 PM 28.4 °F 13.0 °F 28.4 °F 100% 29.55 in 0.8 mi NW 28.8 mph 34.5 mph N/A   Overcast
4:55 PM 28.4 °F 13.0 °F 26.6 °F 93% 29.56 in 1.2 mi NW 28.8 mph 38.0 mph N/A   Overcast
5:15 PM 26.6 °F 10.8 °F 26.6 °F 100% 29.58 in 1.2 mi NNW 27.6 mph 38.0 mph N/A   Overcast
5:35 PM 26.6 °F 10.6 °F 26.6 °F 100% 29.58 in 1.2 mi NW 28.8 mph 38.0 mph N/A   Overcast
5:55 PM 26.6 °F 9.8 °F 26.6 °F 100% 29.59 in 1.2 mi NW 32.2 mph 41.4 mph N/A   Overcast
6:15 PM 26.6 °F 10.8 °F 26.6 °F 100% 29.60 in 1.2 mi NW 27.6 mph 38.0 mph N/A   Overcast
6:35 PM 26.6 °F 11.1 °F 26.6 °F 100% 29.62 in 1.5 mi NW 26.5 mph 35.7 mph N/A   Overcast
6:55 PM 26.6 °F 10.8 °F 26.6 °F 100% 29.63 in 1.8 mi NW 27.6 mph 40.3 mph N/A   Overcast
7:15 PM 26.6 °F 11.4 °F 26.6 °F 100% 29.63 in 1.8 mi NNW 25.3 mph 39.1 mph N/A   Overcast
7:35 PM 26.6 °F 9.8 °F 24.8 °F 93% 29.65 in 2.0 mi NW 32.2 mph 38.0 mph N/A   Overcast
7:55 PM 26.6 °F 11.4 °F 24.8 °F 93% 29.66 in 2.5 mi NW 25.3 mph 39.1 mph N/A   Overcast
8:15 PM 26.6 °F 11.4 °F 24.8 °F 93% 29.66 in 2.0 mi NW 25.3 mph 33.4 mph N/A   Overcast
8:35 PM 24.8 °F 8.4 °F 24.8 °F 100% 29.67 in 2.5 mi NNW 27.6 mph 33.4 mph N/A   Overcast
8:55 PM 24.8 °F 9.0 °F 23.0 °F 93% 29.68 in 3.0 mi NNW 25.3 mph 36.8 mph N/A   Overcast
9:15 PM 24.8 °F 8.4 °F 23.0 °F 93% 29.69 in 4.0 mi NW 27.6 mph 35.7 mph N/A   Overcast
9:35 PM 24.8 °F 9.3 °F 23.0 °F 93% 29.70 in 7.0 mi NNW 24.2 mph 31.1 mph N/A   Overcast
9:55 PM 24.8 °F 9.6 °F 21.2 °F 86% 29.71 in 7.0 mi NNW 23.0 mph 29.9 mph N/A   Overcast
10:15 PM 23.0 °F 7.2 °F 21.2 °F 93% 29.72 in 7.0 mi NNW 23.0 mph 33.4 mph N/A   Overcast
10:35 PM 23.0 °F 7.6 °F 21.2 °F 93% 29.73 in 10.0 mi NW 21.9 mph 28.8 mph N/A   Overcast
10:55 PM 23.0 °F 8.0 °F 21.2 °F 93% 29.75 in 10.0 mi NW 20.7 mph 26.5 mph N/A   Overcast
11:15 PM 23.0 °F 7.2 °F 21.2 °F 93% 29.76 in 10.0 mi NW 23.0 mph 27.6 mph N/A   Overcast
11:35 PM 23.0 °F 9.2 °F 21.2 °F 93% 29.76 in 10.0 mi NW 17.3 mph 28.8 mph N/A   Overcast
11:55 PM 21.2 °F 5.6 °F 19.4 °F 93% 29.78 in 10.0 mi NW 20.7 mph 31.1 mph N/A   Overcast